Weather History for Plant City, FL

Change the Weather History Date:

Friday, November 2, 2012

  Actual Average Record
Temperature  
Mean Temperature 66 °F -  
Max Temperature 80 °F 82 °F 90 °F (1971)
Min Temperature 53 °F 61 °F 38 °F (1931)
Cooling Degree Days 2    
Growing Degree Days 16 (Base 50)    
Moisture  
Dew Point 47 °F    
Average Humidity 46    
Maximum Humidity 82    
Minimum Humidity 24    
Precipitation  
Precipitation 0.00 in - - ()
Sea Level Pressure  
Sea Level Pressure 30.08 in    
Wind  
Wind Speed 2 mph (NW)    
Max Wind Speed 10 mph    
Max Gust Speed -    
Visibility 8 miles    
Events Fog    
Averages and records for this station are not official NWS values.
T = Trace of Precipitation, MM = Missing Value Source: NWS Daily Summary

Daily Weather History Graph

Daily Weather History Graph

Search for Another Location

Airport:

Trip Planner

Search our weather history database for the weather conditions in past years. The results will help you decide how hot, cold, wet, or windy it might be!

Date:

Astronomy

Nov. 02, 2012 Rise Set
Actual Time 7:40 AM EDT 6:43 PM EDT
Civil Twilight 7:16 AM EDT 7:07 PM EDT
Nautical Twilight 6:48 AM EDT 7:35 PM EDT
Astronomical Twilight 6:21 AM EDT 8:02 PM EDT
Moon 9:39 PM EDT (11/2) 10:50 AM EDT (11/2)
Length of Visible Light 11h 50m
Length of Day
11h 02m
Waning Gibbous, 87% of the Moon is Illuminated
Nov 2
Waning Gibbous
Nov 6
Last Quarter
Nov 13
New
Nov 20
First Quarter
Nov 28
Full

Hourly Weather History & Observations

Time (EDT) Temp. Dew Point Humidity Pressure Visibility Wind Dir Wind Speed Gust Speed Precip Events Conditions
12:15 AM 62.6 °F - N/A% 30.06 in 7.0 mi Calm Calm - N/A   Clear
12:35 AM 60.8 °F - N/A% 30.06 in 10.0 mi Calm Calm - N/A   Clear
12:55 AM 60.8 °F - N/A% 30.06 in 7.0 mi Calm Calm - N/A   Clear
1:15 AM 59.0 °F - N/A% 30.05 in 1.2 mi Calm Calm - N/A   Mist
1:35 AM 60.8 °F - N/A% 30.05 in 0.2 mi Calm Calm - N/A Fog Fog
1:55 AM 59.0 °F - N/A% 30.05 in 2.0 mi Calm Calm - N/A   Clear
2:15 AM 59.0 °F - N/A% 30.06 in 2.0 mi Calm Calm - N/A   Clear
2:35 AM 57.2 °F - N/A% 30.06 in 2.5 mi Calm Calm - N/A   Clear
2:55 AM 57.2 °F - N/A% 30.06 in 0.8 mi Calm Calm - N/A   Mist
3:15 AM 55.4 °F - N/A% 30.06 in 0.2 mi Calm Calm - N/A Fog Fog
3:35 AM 57.2 °F - N/A% 30.06 in 0.2 mi Calm Calm - N/A Fog Fog
3:55 AM 57.2 °F - N/A% 30.06 in 0.2 mi Calm Calm - N/A Fog Fog
4:15 AM 57.2 °F - N/A% 30.06 in 1.2 mi Calm Calm - N/A   Scattered Clouds
4:35 AM 57.2 °F - N/A% 30.07 in 7.0 mi NNW 3.5 mph - N/A   Clear
4:55 AM 57.2 °F - N/A% 30.07 in 7.0 mi NNW 3.5 mph - N/A   Clear
5:15 AM 57.2 °F - N/A% 30.07 in 7.0 mi Calm Calm - N/A   Clear
5:35 AM 57.2 °F - N/A% 30.07 in 7.0 mi NNW 3.5 mph - N/A   Clear
5:55 AM 57.2 °F - N/A% 30.07 in 7.0 mi Calm Calm - N/A   Clear
6:15 AM 53.6 °F - N/A% 30.07 in 0.5 mi Calm Calm - N/A Fog Fog
6:35 AM 55.4 °F - N/A% 30.07 in 0.5 mi Calm Calm - N/A Fog Fog
6:55 AM 53.6 °F - N/A% 30.08 in 0.8 mi Calm Calm - N/A   Mist
7:15 AM 53.6 °F - N/A% 30.08 in 3.0 mi Calm Calm - N/A   Clear
7:35 AM 53.6 °F - N/A% 30.08 in 7.0 mi Calm Calm - N/A   Clear
7:55 AM 53.6 °F - N/A% 30.09 in 4.0 mi Calm Calm - N/A   Haze
8:15 AM 53.6 °F - N/A% 30.09 in 5.0 mi Calm Calm - N/A   Haze
8:35 AM 57.2 °F - N/A% 30.09 in 7.0 mi Calm Calm - N/A   Clear
8:55 AM 59.0 °F - N/A% 30.09 in 10.0 mi Calm Calm - N/A   Clear
9:15 AM 60.8 °F - N/A% 30.10 in 10.0 mi NNE 3.5 mph - N/A   Clear
9:35 AM 62.6 °F - N/A% 30.11 in 10.0 mi NNE 3.5 mph - N/A   Clear
9:55 AM 64.4 °F - N/A% 30.12 in 10.0 mi NNE 4.6 mph - N/A   Clear
10:15 AM 68.0 °F 59.0 °F 73% 30.12 in 10.0 mi Calm Calm - N/A   Clear
10:35 AM 69.8 °F 57.2 °F 64% 30.13 in 10.0 mi NNE 3.5 mph - N/A   Clear
10:55 AM 71.6 °F 53.6 °F 53% 30.13 in 10.0 mi Calm Calm - N/A   Clear
11:15 AM 71.6 °F 51.8 °F 50% 30.14 in 10.0 mi Calm Calm - N/A   Clear
11:35 AM 73.4 °F 44.6 °F 36% 30.13 in 10.0 mi North 3.5 mph - N/A   Clear
11:55 AM 73.4 °F 44.6 °F 36% 30.13 in 10.0 mi Calm Calm - N/A   Clear
12:15 PM 75.2 °F 46.4 °F 36% 30.12 in 10.0 mi West 3.5 mph - N/A   Clear
12:35 PM 75.2 °F 44.6 °F 34% 30.11 in 10.0 mi North 5.8 mph - N/A   Clear
12:55 PM 77.0 °F 44.6 °F 32% 30.11 in 10.0 mi Calm Calm - N/A   Clear
1:15 PM 77.0 °F 46.4 °F 34% 30.09 in 10.0 mi NW 5.8 mph - N/A   Clear
1:35 PM 78.8 °F 46.4 °F 32% 30.09 in 10.0 mi WNW 8.1 mph - N/A   Clear
1:55 PM 78.8 °F 44.6 °F 30% 30.08 in 10.0 mi NNW 5.8 mph - N/A   Clear
2:15 PM 78.8 °F 42.8 °F 28% 30.07 in 10.0 mi NNW 6.9 mph - N/A   Clear
2:35 PM 78.8 °F 44.6 °F 30% 30.07 in 10.0 mi WNW 5.8 mph - N/A   Clear
2:55 PM 78.8 °F 42.8 °F 28% 30.06 in 10.0 mi NNW 4.6 mph - N/A   Clear
3:15 PM 78.8 °F 44.6 °F 30% 30.06 in 10.0 mi WNW 4.6 mph - N/A   Clear
3:35 PM 78.8 °F 44.6 °F 30% 30.05 in 10.0 mi NNW 4.6 mph - N/A   Clear
3:55 PM 78.8 °F 44.6 °F 30% 30.05 in 10.0 mi WNW 10.4 mph - N/A   Clear
4:15 PM 80.6 °F 44.6 °F 28% 30.05 in 10.0 mi West 6.9 mph - N/A   Clear
4:35 PM 78.8 °F 42.8 °F 28% 30.05 in 10.0 mi West 5.8 mph - N/A   Clear
4:55 PM 78.8 °F 41.0 °F 26% 30.05 in 10.0 mi NW 5.8 mph - N/A   Clear
5:15 PM 78.8 °F 39.2 °F 24% 30.05 in 10.0 mi NW 9.2 mph - N/A   Clear
5:35 PM 77.0 °F 37.4 °F 24% 30.05 in 10.0 mi WNW 10.4 mph - N/A   Clear
5:55 PM 75.2 °F 39.2 °F 27% 30.06 in 10.0 mi NW 10.4 mph - N/A   Clear
6:15 PM 73.4 °F 41.0 °F 31% 30.06 in 10.0 mi WNW 8.1 mph - N/A   Clear
6:35 PM 71.6 °F 41.0 °F 33% 30.07 in 10.0 mi WNW 5.8 mph - N/A   Clear
6:55 PM 69.8 °F 42.8 °F 38% 30.07 in 10.0 mi NW 5.8 mph - N/A   Clear
7:15 PM 68.0 °F 44.6 °F 43% 30.07 in 10.0 mi WNW 3.5 mph - N/A   Clear
7:35 PM 68.0 °F 46.4 °F 46% 30.08 in 10.0 mi WNW 4.6 mph - N/A   Clear
7:55 PM 66.2 °F 46.4 °F 49% 30.08 in 10.0 mi NW 5.8 mph - N/A   Clear
8:15 PM 66.2 °F 48.2 °F 52% 30.09 in 10.0 mi NW 3.5 mph - N/A   Clear
8:35 PM 66.2 °F 48.2 °F 52% 30.09 in 10.0 mi WNW 3.5 mph - N/A   Clear
8:55 PM 64.4 °F 48.2 °F 56% 30.10 in 10.0 mi Calm Calm - N/A   Clear
9:15 PM 60.8 °F 50.0 °F 68% 30.11 in 10.0 mi Calm Calm - N/A   Clear
9:35 PM 59.0 °F 50.0 °F 72% 30.11 in 10.0 mi Calm Calm - N/A   Clear
9:55 PM 59.0 °F 50.0 °F 72% 30.11 in 10.0 mi Calm Calm - N/A   Clear
10:15 PM 57.2 °F 50.0 °F 77% 30.11 in 10.0 mi Calm Calm - N/A   Clear
10:35 PM 57.2 °F 50.0 °F 77% 30.11 in 10.0 mi WSW 3.5 mph - N/A   Clear
10:55 PM 59.0 °F 53.6 °F 82% 30.11 in 10.0 mi WSW 3.5 mph - N/A   Clear
11:15 PM 57.2 °F 51.8 °F 82% 30.11 in 10.0 mi Calm Calm - N/A   Clear
11:35 PM 57.2 °F 51.8 °F 82% 30.11 in 10.0 mi Calm Calm - N/A   Clear
11:55 PM 57.2 °F 51.8 °F 82% 30.12 in 10.0 mi Calm Calm - N/A   Clear